Regional Weather Roundup
Issued by NWS

Home | Current Version | Previous Version | Text Only | Print | Product List | Glossary On
Versions: 1 2 3 4 5 6 7 8 9 10 11 12 13 14 15 16 17 18 19 20 21 22 23 24 25 26 27 28 29 30 31 32 33 34 35 36 37 38 39 40 41 42 43 44 45 46 47 48 49 50
000
ASUS45 KTFX 201119
RWRMT
MONTANA HOURLY WEATHER ROUNDUP
NATIONAL WEATHER SERVICE GREAT FALLS MT
519 AM MDT SUN APR 20 2014

NOTE: "FAIR" INDICATES FEW OR NO CLOUDS BELOW 12000 FEET WITH NO
SIGNIFICANT WEATHER AND/OR OBSTRUCTIONS TO VISIBILITY.

* THESE STATIONS ARE NOT UNDER NWS QUALITY CONTROL. THEY DO NOT
   REPORT WEATHER SUCH AS PRECIPITATION OR FOG.

MTZ001>007-043-201200-
WEST OF THE DIVIDE
CITY           SKY/WX    TMP DP  RH WIND       PRES   REMARKS
KALISPELL      PTCLDY    41  34  76 S14       30.05R
MISSOULA       PTCLDY    45  25  45 W16G26    30.13R
BUTTE          MOCLDY    39  27  62 NW14      30.07R WCI  31
MULLAN PASS    LGT SNOW  28  25  89 VRB7G26   30.08S WCI  21
* ESSEX        N/A       34  33  96 SE1        N/A
* LINCOLN      N/A       40  27  60 S7G15      N/A   WCI  35
* LOOKOUT PASS N/A       35  28  76 SE11G19    N/A   WCI  27
* PLAINS APT   PTCLDY    46  28  50 SW6       30.11R
* POLSON       N/A       37  33  85 SE3G9      N/A
* SEELEY LAKE  N/A       36  30  79 N3         N/A
* THOMP F APT  PTCLDY    41  25  53 N/A        N/A
* YAAK HILL    N/A       46  28  50 N2G9       N/A
$$

MTZ008-052>055-201200-
SOUTHWEST MONTANA
CITY           SKY/WX    TMP DP  RH WIND       PRES   REMARKS
BOZEMAN        CLOUDY    45  27  49 NW6       30.03R
DILLON         CLOUDY    46  25  44 S6        30.05R
W YELLOWSTONE  N/A       29  24  82 SW1        N/A
* THREE FORKS  MOCLDY    48  30  50 N10G17     N/A
* BOULDER HILL N/A       38  25  60 N4G9       N/A
* MONIDA PASS  N/A       42  22  45 E6         N/A
* RAYNOLDS PAS N/A       42  25  51 S10        N/A
* WHITEHALL    N/A       48  25  41 W6G15      N/A
* WISE RIVER   N/A       39  28  65 W10G16     N/A   WCI  32
$$

MTZ009>010-012-014-046-048-049-054-201200-
EAST SLOPES AND CENTRAL MONTANA
CITY           SKY/WX    TMP DP  RH WIND       PRES   REMARKS
CUT BANK       CLEAR     39  30  70 W30G40    29.90R WCI  27
GREAT FALLS    PTCLDY    43  28  56 SW15      29.98R
HELENA         MOCLDY    43  25  49 W5        30.06R
MALMSTROM AFB  MOCLDY    46  27  48 SW20G26   29.95R
* CONRAD       CLEAR     37  27  67 S8         N/A   WCI  31
* DEARBORN     N/A       48  23  37 S16G26     N/A
* MONARCH      N/A       41  20  43 W15G30     N/A
* PENDROY      N/A       36  24  62 SW3        N/A
* ROGERS PASS  N/A       36  22  57 SE13G34    N/A   WCI  27
* SAINT MARY   N/A       35  32  89 S6G15      N/A   WCI  30
* SWEET GRASS  N/A       38  33  82 SW25G32    N/A   WCI  27
* WHITE SULPH  N/A       42  26  53 NW13G32    N/A
$$

MTZ011-013-016-021-035-040-045-047-050-051-201200-
NORTH CENTRAL MONTANA
CITY           SKY/WX    TMP DP  RH WIND       PRES   REMARKS
HAVRE          CLOUDY    46  30  54 SW13      29.88R
LEWISTOWN      CLOUDY    43  25  49 S5        29.96R
* CHINOOK      CLOUDY    46  30  54 SW9       29.88R
* FORT BENTON  CLOUDY    50  25  38 SW20      29.93R
* MALTA APT    CLOUDY    37  23  57 S12G23    29.78R WCI  29
* CHESTER      N/A       46  27  48 W11G18     N/A
* DENTON       N/A       48  27  44 W25G36     N/A
* GEYSER       N/A       42  26  53 W13G19     N/A
* JUDITH GAP   N/A       45  26  47 N20G26     N/A
* LOMA         N/A       50  27  41 SW12G22    N/A
$$

MTZ017>020-022>027-061-062-201200-
NORTHEAST MONTANA
CITY           SKY/WX    TMP DP  RH WIND       PRES   REMARKS
GLASGOW        CLOUDY    37  28  70 E9        29.79F WCI  30
GLENDIVE       PTCLDY    36  23  59 CALM      29.87S
JORDAN         MOCLDY    36  28  73 CALM      29.80S
SIDNEY         PTCLDY    30  27  89 CALM      29.87F
WOLF POINT     CLOUDY    34  28  79 E7        29.83F WCI  28
* BEAVER HILL  N/A       43  28  56 SE16       N/A
* CIRCLE       N/A       46  27  48 N/A        N/A
* LINDSAY DVD  N/A       40  23  51 E2         N/A
* NAVAJO       N/A       38  28  67 S7         N/A   WCI  33
* SACO         N/A       38  30  73 E6         N/A   WCI  33
* SCOBEY APT   MOCLDY    36  27  70 CALM      29.81F
$$

MTZ028>042-056>058-201200-
SOUTHCENTRAL AND SOUTHEAST MONTANA
CITY           SKY/WX    TMP DP  RH WIND       PRES   REMARKS
BAKER          PTCLDY    36  28  73 E7        29.89F WCI  30
BILLINGS       CLOUDY    54  25  33 SW14      29.85R
LIVINGSTON     MOCLDY    46  25  44 W10       29.97R
MILES CITY     PTCLDY    43  32  65 S10       29.84S
* EKALAKA APT  CLEAR     45  30  56 E9        29.88F
* LAUREL APT   CLOUDY    48  25  41 SW6        N/A
* ROUNDUP APT  CLOUDY    39  25  57 S5         N/A   WCI  35
* HYSHAM       N/A       54  23  30 W4G9       N/A
* LAME DEER    N/A       47  27  46 S8         N/A
* REED POINT   N/A       32  29  89 NW4        N/A
* ROSCOE HILL  N/A       54  13  19 N6         N/A
$$

REGIONAL REPORTS...DAKOTAS
CITY           SKY/WX    TMP DP  RH WIND       PRES   REMARKS
WILLISTON      PTCLDY    28  27  96 CALM      29.87F
DICKINSON      CLEAR     37  25  62 S10       29.88F WCI  30
CROSBY         CLEAR     32  32 100 S3        29.88F
TIOGA          CLEAR     30  30 100 E5        29.92F WCI  25
WATFORD CITY   CLEAR     32  28  85 SE6       29.87F WCI  26
BISMARCK       CLEAR     34 N/A N/A NE8       29.97F WCI  27
GRAND FORKS    CLEAR     30  28  92 CALM      30.03R
FARGO          CLEAR     30  28  92 CALM      30.03R
BUFFALO SD     CLEAR     43  27  53 S3        29.86S
RAPID CITY     CLEAR     39  28  65 CALM      29.92S
$$

REGIONAL REPORTS...WYOMING/IDAHO/WASHINGTON
CITY           SKY/WX    TMP DP  RH WIND       PRES   REMARKS
GILLETTE       CLEAR     41  34  76 SE9       29.92S
SHERIDAN       CLEAR     34  27  76 SW5       29.90S WCI  29
CODY           MOCLDY    46  25  44 SE7       29.94S
YELLOWSTONE LA MOCLDY    25  19  78 VRB3      30.10S
SALMON         PTCLDY    43  25  49 N10       30.12R
MULLAN PASS    LGT SNOW  28  25  89 VRB7G26   30.08S WCI  21
SAND POINT     CLOUDY    43  32  65 SW8       30.11R
SPOKANE        PTCLDY    37  30  76 SW14      30.15R WCI  28
$$

REGIONAL REPORTS...ALBERTA
CITY           SKY/WX    TMP DP  RH WIND       PRES   REMARKS
CALGARY        MOCLDY    41  27  58 NW12      29.79R
LETHBRIDGE     MOCLDY    41  32  70 SW25G35   29.82R
MEDICINE HAT   FAIR      45  32  60 S14G20    29.80R
EDMONTON       CLOUDY    41  37  86 VRB2      29.77R
WATERTON GATE  N/A       37  30  76 SW20G33    N/A   WCI  27
CARDSTON       N/A       39  32  76 W14G25     N/A   WCI  31
MILK RIVER     N/A       39  30  70 W8G18      N/A   WCI  33
$$

REGIONAL REPORTS...SASKATCHEWAN
CITY           SKY/WX    TMP DP  RH WIND       PRES   REMARKS
SWIFT CURRENT  CLEAR     30  28  92 SE5       29.77F WCI  25
REGINA         MOCLDY    30  28  92 E9        29.88F WCI  22
VAL MARIE      N/A       34  27  76 NE1        N/A
ASSINIBOIA     N/A       30  28  92 E9         N/A   WCI  22
CORONACH       N/A       30  28  92 SE2        N/A

$$




USA.gov is the U.S. government's official web portal to all federal, state and local government web resources and services.